TimeEDT,TemperatureF,Dew PointF,Humidity,Sea Level PressureIn,VisibilityMPH,Wind Direction,Wind SpeedMPH,Gust SpeedMPH,PrecipitationIn,Events,Conditions,WindDirDegrees,DateUTC
12:15 AM,34.5,31.1,87,30.03,10.0,Calm,Calm,-,N/A,,Clear,0,2013-04-08 04:15:00
12:35 AM,33.4,30.9,90,30.02,10.0,Calm,Calm,-,N/A,,Clear,0,2013-04-08 04:35:00
12:54 AM,32.9,31.1,93,30.02,10.0,NE,3.5,-,N/A,,Clear,40,2013-04-08 04:54:00
1:15 AM,32.5,30.6,92,30.02,10.0,Calm,Calm,-,N/A,,Clear,0,2013-04-08 05:15:00
1:35 AM,32.0,30.2,93,30.02,7.0,East,3.5,-,N/A,,Clear,80,2013-04-08 05:35:00
1:54 AM,32.5,30.9,94,30.02,10.0,East,4.6,-,N/A,,Clear,100,2013-04-08 05:54:00
2:15 AM,32.4,30.6,93,30.02,10.0,ESE,4.6,-,N/A,,Clear,110,2013-04-08 06:15:00
2:35 AM,32.0,30.0,92,30.01,10.0,SE,6.9,-,N/A,,Clear,130,2013-04-08 06:35:00
2:55 AM,32.9,30.7,92,30.01,10.0,ESE,4.6,-,N/A,,Clear,110,2013-04-08 06:55:00
3:15 AM,33.6,31.3,91,30.01,10.0,ESE,4.6,-,N/A,,Clear,120,2013-04-08 07:15:00
3:35 AM,32.9,30.7,92,30.00,10.0,ESE,5.8,-,N/A,,Clear,120,2013-04-08 07:35:00
3:55 AM,33.3,31.3,92,29.99,10.0,ESE,5.8,-,N/A,,Clear,120,2013-04-08 07:55:00
4:15 AM,34.2,31.8,91,29.99,10.0,ESE,6.9,-,N/A,,Clear,120,2013-04-08 08:15:00
4:35 AM,33.1,31.1,92,29.99,10.0,ESE,6.9,-,N/A,,Clear,120,2013-04-08 08:35:00
4:55 AM,34.2,32.0,92,30.00,10.0,SE,10.4,-,N/A,,Clear,140,2013-04-08 08:55:00
5:15 AM,34.9,32.0,89,29.99,10.0,SE,9.2,-,N/A,,Clear,130,2013-04-08 09:15:00
5:35 AM,34.9,32.0,89,29.98,10.0,ESE,6.9,-,N/A,,Clear,120,2013-04-08 09:35:00
5:55 AM,35.1,32.0,89,29.98,10.0,SE,9.2,-,N/A,,Clear,130,2013-04-08 09:55:00
6:15 AM,35.8,32.7,89,29.97,10.0,ESE,8.1,-,N/A,,Clear,110,2013-04-08 10:15:00
6:34 AM,36.0,32.5,87,29.96,10.0,ESE,8.1,-,N/A,,Clear,120,2013-04-08 10:34:00
6:55 AM,36.9,32.9,86,29.96,10.0,SE,10.4,-,N/A,,Clear,130,2013-04-08 10:55:00
7:15 AM,36.9,33.1,86,29.95,10.0,ESE,9.2,-,N/A,,Clear,120,2013-04-08 11:15:00
7:35 AM,37.6,33.4,85,29.95,10.0,ESE,11.5,-,N/A,,Clear,120,2013-04-08 11:35:00
7:55 AM,38.5,34.0,84,29.95,10.0,ESE,10.4,-,N/A,,Clear,120,2013-04-08 11:55:00
8:14 AM,39.6,34.3,82,29.94,10.0,ESE,11.5,-,N/A,,Clear,120,2013-04-08 12:14:00
8:35 AM,40.3,34.7,80,29.93,10.0,SE,12.7,19.6,N/A,,Clear,130,2013-04-08 12:35:00
8:55 AM,41.0,34.9,79,29.93,10.0,ESE,12.7,-,N/A,,Clear,120,2013-04-08 12:55:00
9:14 AM,42.8,35.8,76,29.93,10.0,SE,13.8,17.3,N/A,,Clear,140,2013-04-08 13:14:00
9:35 AM,44.1,36.0,73,29.92,10.0,SE,15.0,23.0,N/A,,Clear,140,2013-04-08 13:35:00
9:55 AM,45.0,36.1,71,29.91,10.0,SE,15.0,23.0,N/A,,Clear,140,2013-04-08 13:55:00
10:15 AM,46.0,36.7,70,29.89,10.0,ESE,12.7,21.9,N/A,,Scattered Clouds,120,2013-04-08 14:15:00
10:35 AM,47.5,37.0,67,29.87,10.0,SE,17.3,25.3,N/A,,Mostly Cloudy,130,2013-04-08 14:35:00
10:55 AM,47.8,37.6,68,29.87,7.0,SE,15.0,21.9,N/A,Rain,Light Rain,140,2013-04-08 14:55:00
11:15 AM,45.5,40.3,82,29.85,4.0,ESE,15.0,20.7,N/A,Rain,Light Rain,120,2013-04-08 15:15:00
11:35 AM,45.5,41.4,85,29.85,5.0,SE,13.8,-,N/A,Rain,Light Rain,130,2013-04-08 15:35:00
11:55 AM,45.5,41.9,87,29.83,5.0,SE,15.0,-,N/A,Rain,Light Rain,130,2013-04-08 15:55:00
12:15 PM,45.1,42.3,90,29.81,3.0,ESE,16.1,20.7,N/A,Rain,Light Rain,110,2013-04-08 16:15:00
12:35 PM,45.9,43.3,91,29.80,4.0,ESE,11.5,-,N/A,Rain,Light Rain,110,2013-04-08 16:35:00
12:55 PM,46.8,44.2,91,29.80,4.0,SE,11.5,-,N/A,Rain,Rain,130,2013-04-08 16:55:00
1:15 PM,46.8,44.8,93,29.80,3.0,SE,10.4,-,N/A,Rain,Light Rain,140,2013-04-08 17:15:00
1:35 PM,46.8,45.1,94,29.78,2.5,ESE,11.5,-,N/A,Rain,Rain,120,2013-04-08 17:35:00
1:54 PM,46.9,45.5,95,29.76,3.0,ESE,11.5,-,N/A,Rain,Light Rain,120,2013-04-08 17:54:00
2:15 PM,47.3,46.0,95,29.75,2.5,SE,11.5,16.1,N/A,Rain,Rain,130,2013-04-08 18:15:00
2:35 PM,48.0,46.9,96,29.73,3.0,SE,16.1,-,N/A,,Overcast,140,2013-04-08 18:35:00
2:54 PM,48.4,47.3,96,29.72,3.0,SE,13.8,20.7,N/A,Rain,Light Rain,140,2013-04-08 18:54:00
3:15 PM,50.4,49.5,97,29.71,3.0,SE,9.2,-,N/A,,Overcast,140,2013-04-08 19:15:00
3:34 PM,50.9,49.3,94,29.70,4.0,SSE,10.4,-,N/A,,Overcast,150,2013-04-08 19:34:00
3:55 PM,51.1,49.6,95,29.68,4.0,South,6.9,16.1,N/A,,Drizzle,180,2013-04-08 19:55:00
4:15 PM,51.8,50.2,94,29.69,4.0,SSW,5.8,9.2,N/A,Rain,Light Rain,210,2013-04-08 20:15:00
4:34 PM,54.3,52.0,92,29.68,5.0,South,9.2,17.3,N/A,,Overcast,190,2013-04-08 20:34:00
4:55 PM,57.0,54.3,91,29.68,7.0,SSW,9.2,-,N/A,,Overcast,210,2013-04-08 20:55:00
5:15 PM,61.3,55.8,82,29.68,10.0,SSW,12.7,18.4,N/A,,Mostly Cloudy,210,2013-04-08 21:15:00
5:35 PM,63.1,50.9,64,29.69,10.0,WSW,23.0,35.7,N/A,,Scattered Clouds,240,2013-04-08 21:35:00
5:55 PM,63.3,49.1,60,29.70,10.0,WSW,26.5,36.8,N/A,,Scattered Clouds,240,2013-04-08 21:55:00
6:14 PM,63.1,48.2,58,29.71,10.0,WSW,20.7,34.5,N/A,,Scattered Clouds,240,2013-04-08 22:14:00
6:35 PM,62.6,47.5,58,29.72,10.0,WSW,15.0,31.1,N/A,,Scattered Clouds,250,2013-04-08 22:35:00
6:55 PM,61.0,46.6,59,29.74,10.0,WSW,15.0,41.4,N/A,,Scattered Clouds,250,2013-04-08 22:55:00
7:15 PM,58.8,46.6,64,29.77,10.0,West,25.3,31.1,N/A,,Scattered Clouds,270,2013-04-08 23:15:00
7:35 PM,53.4,45.5,75,29.80,10.0,West,24.2,31.1,N/A,,Clear,280,2013-04-08 23:35:00
7:55 PM,50.4,44.1,79,29.81,10.0,West,23.0,28.8,N/A,,Scattered Clouds,270,2013-04-08 23:55:00
8:15 PM,49.5,44.1,82,29.83,10.0,WSW,18.4,24.2,N/A,,Overcast,250,2013-04-09 00:15:00
8:35 PM,48.4,44.1,85,29.84,10.0,WSW,15.0,25.3,N/A,,Overcast,250,2013-04-09 00:35:00
8:54 PM,47.7,44.1,87,29.86,7.0,West,15.0,23.0,N/A,,Overcast,260,2013-04-09 00:54:00
9:15 PM,47.7,44.2,88,29.87,7.0,West,12.7,-,N/A,,Overcast,270,2013-04-09 01:15:00
9:35 PM,47.7,44.4,89,29.89,7.0,West,12.7,17.3,N/A,,Overcast,270,2013-04-09 01:35:00
9:54 PM,47.5,44.2,89,29.90,7.0,West,9.2,-,N/A,,Overcast,260,2013-04-09 01:54:00
10:15 PM,47.5,44.2,89,29.92,7.0,West,11.5,17.3,N/A,,Overcast,260,2013-04-09 02:15:00
10:35 PM,47.3,43.9,88,29.93,7.0,West,13.8,18.4,N/A,,Overcast,260,2013-04-09 02:35:00
10:55 PM,46.8,43.9,90,29.95,7.0,West,10.4,-,N/A,,Overcast,260,2013-04-09 02:55:00
11:15 PM,46.4,43.7,90,29.96,7.0,West,8.1,-,N/A,,Overcast,270,2013-04-09 03:15:00
11:34 PM,46.4,43.7,90,29.97,7.0,West,8.1,-,N/A,,Overcast,270,2013-04-09 03:34:00
11:55 PM,46.0,43.3,90,29.97,7.0,WNW,12.7,18.4,N/A,,Overcast,290,2013-04-09 03:55:00